MERAH PUTIH 2

Last updated on Tue Jul 01 2025 00:02:49 GMT+0000 (Coordinated Universal Time)

1 58995U 24035A 25181.57421176 -.00000358 00000+0 00000+0 0 9995 2 58995 0.0173 57.1045 0001073 49.0064 132.4340 1.00271483 5104
UTC large
Height (km)
Speed (km/s)
/
Latitude / Longitude
Inclination (degrees)
Orbital Period (minutes)
Azimuth
Elevation
Range (km)
Doppler Factor

Next 0 passes for location: London (51.5072 / 0.1276)

Sorry there are no passes over London.